星链-2082 (STARLINK-2082 )

导读 | 豆包AI

STARLINK-2082是美国SpaceX公司星链(Starlink)低轨卫星星座的组成卫星,于2021年1月20日发射升空,属于星链早期批量部署的V1.0批次卫星。星链星座旨在为全球提供广覆盖的高速卫星互联网服务,该卫星运行在近地轨道,承担着宽带接入的通信任务,支撑星链网络从公测逐步走向全球商用,助力服务覆盖偏远地区、海事航空等场景,推动天地一体化通信网络构建。

基本信息
目录编号:
47367
目录名称:
STARLINK-2082
国际标识:
2021-005U
轨道中心:
EARTH
卫星名称:
星链-2082
卫星全名:
星链-2082 (STARLINK-2082 )
卫星状态:
在轨 (已飞行1926 天)
发射日期:
2021-01-20 UTC
国别 :
美国 (US)
星等 :
--
轨道信息
数据来源 国际轨道数据
星历时间: 2026-04-30T12:15:26+0800
6小时前
查看轨道信息
半长轴: 6848.869km
偏心率: 0.0001394
轨道倾角: 53.159°
近地点辐角 84.167°
升交点赤经 183.308°
平近点角 275.949°
近地点: 469.777km
远地点: 471.687km
周期: 94.013分钟
每日圈数: 15.317028
详细信息
固有亮度:
5
最大亮度:
2.5
卫星平台:
Starlink V1.0
覆盖范围:
全球
运营商:
太空探索技术公司
运营商所在国:
美国
制造商(研发单位):
太空探索技术公司
制造商所在国:
美国
使用方式:
暂无
卫星简介
星链(Starlink)计划是由太空探索技术公司(SpaceX)提出的一个巨型低轨卫星互联网星座项目,计划在2019年至2024年间在太空搭建由约1.2万颗卫星组成的“星链”网络,其中1584颗将部署在地球上空550千米处的近地轨道,并从2020年开始工作。该卫星仍在工作。
2D轨道图
3D轨道图
轨道高度分析图
轨道倾角分析图
轨道综合分析图
查看轨道综合分析图